Probability
0 0 0 0 0 0 0 0 0 0 0 0 0 0 0 0 0 0 0 0 0 0 0 1 2 2 2 3 6 7 5 2 0 1 2 2 1 1
0 0 0 0 0 0 0 0 0 0 0 0 0 0 0 0 0 0 0 0 0 0 0 0 1 1 1 1 2 3 2 1 0 1 2 2 1 1
0 0 0 0 0 0 0 0 0 0 0 0 0 0 0 0 0 0 0 0 0 0 0 0 0 0 0 0 0 0 0 0 0 0 1 1 0 0
0 0 0 0 0 0 0 0 0 0 0 0 0 0 0 0 0 0 0 0 1 0 0 0 0 0 0 0 0 0 0 0 0 0 0 0 0 0
0 0 0 0 0 0 0 0 0 0 0 0 0 0 0 0 0 0 0 0 0 0 0 0 0 0 0 0 0 0 0 0 0 0 0 0 0 0
0 0 0 0 0 0 0 0 0 0 0 0 0 0 0 0 1 0 0 0 0 0 0 0 0 0 0 0 0 0 0 0 0 0 0 0 0 0
0 0 0 0 0 0 0 0 0 0 0 0 0 0 0 0 0 0 0 0 0 0 0 0 0 0 0 0 0 0 0 0 0 0 0 0 0 0
0 0 0 0 0 0 0 0 0 0 0 0 0 0 0 0 0 0 0 0 0 0 0 0 0 0 0 0 0 0 0 0 0 0 0 0 0 0
0 0 0 0 0 0 0 0 0 0 0 0 0 0 0 0 0 0 0 0 0 0 0 0 0 0 0 0 0 0 0 0 0 0 0 0 0 0
0 0 0 0 0 0 0 0 0 0 0 0 0 0 0 0 0 0 0 0 0 0 0 0 0 0 0 0 0 0 0 0 0 0 0 0 0 0
0 0 0 0 0 0 0 0 0 0 0 0 0 0 0 0 0 0 0 0 0 0 1 0 0 0 0 0 0 0 0 0 0 0 0 0 0 0
0 0 0 0 0 0 0 0 0 0 0 0 0 0 0 0 0 0 0 0 0 0 0 0 0 0 0 0 0 0 0 0 0 0 0 0 0 0
0 0 0 0 0 0 0 0 0 0 0 0 0 0 0 0 0 0 0 0 0 0 0 0 0 0 0 0 0 0 0 0 0 0 0 0 0 0
0 0 0 0 0 0 0 0 0 0 0 0 0 0 0 0 0 0 0 0 0 0 0 0 0 0 0 0 0 0 0 0 0 0 0 0 0 0
0 0 0 0 0 0 0 0 0 0 0 0 0 0 0 0 0 0 0 0 0 0 0 0 0 0 0 0 0 0 0 0 0 0 0 0 0 0
0 0 0 0 0 0 0 0 0 0 0 0 0 0 0 0 0 0 0 0 0 0 0 0 0 0 0 0 0 0 0 0 0 0 0 0 0 0
0 0 0 0 0 0 0 0 0 0 0 0 0 0 0 0 0 0 0 0 0 0 0 0 0 0 0 0 0 0 0 0 0 0 0 0 0 0
0 0 0 0 0 0 0 0 0 0 0 0 0 0 0 0 0 0 0 0 0 0 0 0 0 0 0 0 0 0 0 0 0 0 0 0 0 0
0 0 0 0 0 0 0 0 0 0 0 0 0 0 0 0 0 0 0 0 0 0 0 0 0 0 0 0 0 0 0 0 0 0 0 0 0 0
0 0 0 0 0 0 0 0 0 0 0 0 0 0 0 0 0 0 0 0 0 0 0 0 0 0 0 0 0 0 0 0 0 0 0 0 0 0
0 0 0 0 0 0 0 0 0 0 0 0 0 0 0 0 0 0 0 0 0 0 0 0 0 0 0 0 0 0 0 0 0 0 0 1 1 1
0 0 0 0 0 0 0 0 0 0 0 0 0 0 0 0 0 0 0 0 0 0 0 0 0 0 0 0 0 0 0 0 0 0 0 1 1 1
0 0 0 0 0 0 0 0 0 0 0 0 0 0 0 0 0 0 0 0 0 0 0 0 0 0 0 0 0 0 0 0 0 0 0 0 1 0
Wind_Speed
1 1 2 2 2 2 2 2 2 2 3 2 2 2 2 2 3 3 4 6 7 8 10 11 12 13 15 16 18 19 19 19 19 20 20 20 21 21
1 2 2 2 2 2 2 3 3 3 3 2 3 3 3 4 4 3 5 8 8 9 9 10 12 13 14 14 16 18 18 19 19 20 20 20 20 20
2 2 3 3 2 2 2 2 3 3 5 4 3 3 4 5 4 4 4 4 5 8 9 10 11 12 13 14 15 16 17 19 19 20 20 21 21 21
3 3 4 3 3 3 2 3 4 4 5 6 4 3 4 4 5 5 4 4 4 7 9 10 11 12 12 14 15 15 16 18 19 20 20 21 21 22
4 4 4 4 4 3 4 4 4 4 4 5 5 3 3 3 4 4 4 4 5 6 8 9 10 11 12 13 14 15 16 17 18 19 19 19 20 21
4 4 5 5 6 5 5 5 4 4 4 5 5 4 4 4 3 4 4 3 4 4 5 5 7 9 11 13 14 15 16 16 17 18 18 19 19 19
5 5 5 7 9 7 5 5 5 4 4 5 5 4 5 4 4 3 4 4 4 3 3 4 4 5 6 9 12 14 15 16 17 17 18 18 19 19
6 6 6 7 8 8 9 9 8 7 6 5 5 6 7 6 5 4 4 4 4 2 3 4 3 5 5 6 9 12 14 15 16 17 18 18 18 18
6 6 5 5 5 5 7 8 8 10 10 8 8 9 8 7 6 6 6 6 6 4 3 5 4 6 5 7 11 13 14 15 16 16 17 18 18 18
6 6 7 7 6 5 6 6 7 8 8 8 9 10 9 8 7 7 6 6 6 5 5 5 5 5 5 5 9 13 13 14 15 16 16 17 17 17
6 6 7 7 8 7 6 7 8 8 8 10 11 11 12 11 8 5 5 5 6 5 5 5 4 4 4 5 6 9 11 13 14 14 15 15 15 14
6 6 8 8 9 8 6 6 8 8 6 6 6 7 8 9 10 9 7 7 6 5 5 5 4 3 3 3 3 3 5 8 11 12 13 14 14 10
5 5 5 7 9 9 7 7 10 9 7 6 6 6 6 6 7 7 8 8 8 7 4 4 4 3 4 3 3 3 4 4 4 6 9 12 14 12
6 5 6 8 10 10 8 9 11 9 6 5 6 6 6 6 6 6 8 9 9 10 7 6 5 5 5 5 4 3 3 4 4 5 5 7 9 12
6 8 9 11 10 8 9 10 8 5 5 6 6 7 6 6 6 5 6 7 8 9 9 9 8 7 6 6 5 4 4 4 4 5 5 5 5 6
5 6 8 9 7 7 7 6 5 5 5 6 6 6 5 5 5 5 4 4 4 5 7 8 9 9 7 7 6 6 5 4 3 4 4 4 4 5
3 3 3 3 4 4 4 4 4 4 5 5 6 6 5 5 5 4 4 4 4 5 5 4 5 6 8 6 6 6 6 5 5 5 4 4 5 5
3 4 5 5 5 5 5 5 4 4 5 5 5 5 5 5 5 4 4 5 6 6 5 4 3 3 3 5 7 7 6 6 5 5 5 5 5 5
5 6 6 6 6 6 5 5 5 5 4 5 5 5 5 5 5 5 4 5 5 6 5 4 4 4 5 5 5 8 6 5 4 5 5 5 5 5
6 7 7 7 6 6 6 6 6 5 5 5 5 5 5 5 5 5 5 6 5 5 5 4 5 5 6 6 4 4 7 6 5 5 4 3 3 3
6 7 7 6 6 6 6 6 6 6 5 5 5 5 5 5 5 5 5 6 6 5 6 6 5 6 5 4 4 3 3 5 6 5 5 4 4 4
7 7 7 7 6 6 6 5 5 5 5 5 5 5 4 4 5 6 5 5 5 6 6 5 4 4 4 5 5 4 4 3 2 3 2 3 4 5
7 7 6 6 6 6 5 6 7 5 5 4 4 4 4 4 5 5 5 5 5 5 5 4 3 3 4 4 4 4 5 4 3 2 1 2 3 3
Wind_Direction
269 257 247 249 229 223 219 205 206 256 277 279 284 304 302 289 280 274 270 267 258 246 238 233 230 227 224 221 217 216 217 218 218 218 218 219 219 220
257 256 258 255 246 230 222 219 215 225 254 262 262 288 301 298 289 279 268 270 262 254 247 238 232 227 223 221 220 217 216 216 217 217 216 216 217 218
285 266 268 263 254 243 226 220 220 217 247 268 263 275 281 285 294 288 276 265 263 253 249 245 237 230 226 223 222 221 220 218 218 217 217 216 216 217
285 280 276 275 260 251 237 234 231 222 232 262 272 271 267 276 283 286 286 278 269 261 252 249 242 234 229 227 224 222 222 221 220 219 218 217 217 218
271 271 275 272 265 257 247 245 244 240 228 246 266 264 268 273 282 282 281 278 277 270 257 250 246 241 235 229 227 226 225 223 221 220 219 217 217 218
271 268 268 261 259 260 255 248 245 245 239 246 260 265 264 267 263 270 280 274 279 281 271 262 251 246 243 236 229 227 226 225 223 221 221 220 218 218
279 272 268 266 260 253 253 246 239 242 245 249 258 262 261 257 253 251 265 282 278 260 269 264 257 253 246 240 235 231 227 224 223 222 221 220 219 218
280 285 283 276 274 271 263 256 238 236 241 245 253 255 259 254 252 251 255 267 275 241 254 272 254 256 252 244 234 230 229 227 224 223 222 221 220 219
267 275 279 278 282 280 278 275 262 248 237 238 248 252 256 250 246 253 247 246 252 255 251 269 256 259 255 249 236 231 230 228 225 223 222 221 219 218
263 262 265 275 275 273 277 276 270 264 251 243 244 250 253 251 240 248 257 263 262 253 229 258 260 258 261 254 241 232 230 229 226 223 221 220 219 218
272 265 261 266 272 272 270 272 277 275 264 251 245 252 254 251 237 235 242 246 261 256 213 233 253 259 259 257 250 237 231 228 226 224 221 218 215 214
282 273 261 261 272 275 263 262 270 274 279 282 271 265 259 254 238 228 233 240 251 258 219 214 236 241 265 249 256 251 237 231 228 226 223 218 210 209
277 278 272 269 272 274 263 251 254 266 276 274 275 274 268 258 248 235 228 231 237 242 228 211 233 233 245 267 267 259 247 237 226 226 220 214 207 204
262 269 273 280 280 277 267 254 259 262 260 263 265 265 264 261 254 246 239 236 237 243 245 227 237 237 243 254 260 259 254 242 228 227 222 204 206 208
256 263 275 283 286 278 265 265 263 250 246 252 257 259 257 261 265 258 249 244 243 245 245 237 235 238 239 245 250 251 258 254 230 221 214 208 204 197
264 274 281 280 273 268 276 273 254 241 240 252 260 263 263 258 256 250 246 243 249 256 244 236 234 231 236 239 240 246 240 236 232 221 215 213 206 204
273 278 276 282 287 283 280 275 265 249 243 245 252 261 263 261 259 246 238 232 237 254 263 246 232 231 237 237 239 238 237 236 231 227 214 219 215 209
235 256 267 269 270 274 279 283 274 262 255 252 253 255 258 262 266 254 235 235 242 250 255 257 243 237 238 239 226 238 239 235 226 218 216 218 221 210
226 250 256 259 262 264 264 265 269 270 261 255 255 254 254 257 258 258 249 243 246 249 251 246 233 230 245 254 233 211 224 230 218 216 217 218 223 214
231 246 252 254 255 259 262 263 266 271 263 257 257 257 254 253 254 254 250 248 249 250 252 242 232 230 237 250 254 234 210 219 220 219 218 218 222 204
240 245 248 250 251 253 257 258 259 264 264 259 257 259 257 253 253 253 253 251 248 248 251 250 243 237 245 244 243 244 234 215 215 218 208 203 206 203
249 249 248 245 246 249 253 255 257 258 261 256 256 258 257 254 258 258 254 253 248 249 255 257 251 233 224 231 241 246 248 235 202 185 211 219 206 203
246 248 251 251 247 246 247 250 254 258 256 255 258 260 260 260 259 258 258 255 255 255 255 254 246 233 233 236 241 242 236 229 219 207 254 294 225 208